Date String (YYYY-MM-DD hh:mm:ss) UTC,Instrument flags,Ambient pressure (hPa),Sample flow (lpm),Bypass flow (lpm),Sample temperature (°C),Ambient temperature (°C),ASC tube jacket temperature (°C),LED temperature (°C),Box temperature (°C),Sample RH (%),Span deviation,Mass concentration (μg/m³),Mass concentration (μg/m³),Mass concentration (μg/m³)
DateTimeUTC,F1_M11,P_M11,Q1_M11,Q2_M11,T1_M11,T2_M11,T3_M11,T4_M11,T5_M11,U1_M11,ZSPAN_M11,X0_M11,X2_M11,X1_M11
2022-12-08 07:00:00,,0823.9,5.00,0.00,22.3,20.9,00.0,31.1,24.1,11.9,0000.0,0014.52,0005.52,0004.51
2022-12-08 07:01:00,,0823.9,5.00,0.00,22.3,20.9,00.0,31.1,24.1,11.9,0000.0,0014.82,0005.59,0004.56
2022-12-08 07:02:00,,0823.8,5.00,0.00,22.3,20.9,00.0,31.1,24.1,11.9,0000.0,0015.26,0005.59,0004.58
2022-12-08 07:03:00,,0823.8,5.00,0.00,22.3,20.9,00.0,31.1,24.1,11.9,0000.0,0014.68,0005.56,0004.59
2022-12-08 07:04:00,,0823.8,4.99,0.00,22.3,20.9,00.0,31.1,24.1,11.8,0000.0,0014.96,0005.51,0004.59
2022-12-08 07:05:00,,0823.8,5.00,0.00,22.3,20.9,00.0,31.1,24.0,11.8,0000.0,0015.77,0005.51,0004.59
2022-12-08 07:06:00,,0823.8,5.00,0.00,22.3,20.9,00.0,31.1,24.0,11.7,0000.0,0016.48,0005.46,0004.56
2022-12-08 07:07:00,,0823.8,5.01,0.00,22.3,20.9,00.0,31.1,24.1,11.6,0000.0,0016.82,0005.43,0004.51
2022-12-08 07:08:00,,0823.8,5.00,0.00,22.3,20.9,00.0,31.1,24.1,11.7,0000.0,0017.07,0005.46,0004.46
2022-12-08 07:09:00,,0823.8,5.01,0.00,22.3,20.9,00.0,31.1,24.1,11.8,0000.0,0015.85,0005.42,0004.42
2022-12-08 07:10:00,,0823.8,5.01,0.00,22.3,20.9,00.0,31.1,24.1,11.8,0000.0,0015.96,0005.36,0004.38
2022-12-08 07:11:00,,0823.7,5.00,0.00,22.3,20.9,00.0,31.1,24.1,11.8,0000.0,0016.12,0005.31,0004.33
2022-12-08 07:12:00,,0823.7,5.00,0.00,22.3,20.9,00.0,31.2,24.1,11.8,0000.0,0016.18,0005.25,0004.26
2022-12-08 07:13:00,,0823.8,4.99,0.00,22.3,20.9,00.0,31.2,24.1,11.8,0000.0,0014.94,0005.12,0004.21
2022-12-08 07:14:00,,0823.7,4.99,0.00,22.3,20.9,00.0,31.2,24.1,11.8,0000.0,0014.85,0005.09,0004.16
2022-12-08 07:15:00,,0823.7,4.99,0.00,22.3,20.9,00.0,31.2,24.1,11.7,0000.0,0014.77,0005.10,0004.13
2022-12-08 07:16:00,,0823.8,4.99,0.00,22.3,20.9,00.0,31.2,24.1,11.7,0000.0,0013.88,0005.06,0004.09
2022-12-08 07:17:00,,0823.7,5.00,0.00,22.3,20.9,00.0,31.2,24.0,11.7,0000.0,0013.93,0005.04,0004.06
2022-12-08 07:18:00,,0823.7,5.00,0.00,22.3,20.9,00.0,31.2,24.0,11.7,0000.0,0014.40,0005.01,0004.08
2022-12-08 07:19:00,,0823.7,5.00,0.00,22.3,20.9,00.0,31.2,24.0,11.7,0000.0,0013.55,0004.96,0004.10
2022-12-08 07:20:00,,0823.6,5.00,0.00,22.3,20.9,00.0,31.2,24.1,11.7,0000.0,0013.39,0004.96,0004.09
2022-12-08 07:21:00,,0823.7,5.01,0.00,22.3,20.9,00.0,31.2,24.0,11.8,0000.0,0013.55,0005.01,0004.07
2022-12-08 07:22:00,,0823.7,5.01,0.00,22.2,20.8,00.0,31.1,23.9,11.7,0000.0,0013.19,0005.04,0004.07
2022-12-08 07:23:00,,0823.7,5.01,0.00,22.2,20.8,00.0,31.1,23.9,11.7,0000.0,0012.88,0005.04,0004.06
2022-12-08 07:24:00,,0823.7,5.00,0.00,22.2,20.7,00.0,31.1,23.9,11.9,0000.0,0013.18,0005.07,0004.07
2022-12-08 07:25:00,,0823.7,5.00,0.00,22.2,20.7,00.0,31.1,23.9,12.0,0000.0,0013.22,0005.09,0004.10
2022-12-08 07:26:00,,0823.7,5.00,0.00,22.2,20.7,00.0,31.1,23.9,12.1,0000.0,0012.99,0005.05,0004.10
2022-12-08 07:27:00,,0823.7,5.00,0.00,22.2,20.7,00.0,31.1,23.9,12.1,0000.0,0012.87,0005.06,0004.12
2022-12-08 07:28:00,,0823.6,5.00,0.00,22.1,20.7,00.0,31.1,23.8,12.1,0000.0,0012.06,0005.08,0004.14
2022-12-08 07:29:00,,0823.7,5.00,0.00,22.1,20.6,00.0,31.1,23.9,12.1,0000.0,0011.67,0005.11,0004.17
2022-12-08 07:30:00,,0823.7,5.00,0.00,22.1,20.6,00.0,31.1,23.9,12.1,0000.0,0011.91,0005.14,0004.19
2022-12-08 07:31:00,,0823.7,4.99,0.00,22.1,20.6,00.0,31.1,23.8,12.1,0000.0,0011.92,0005.14,0004.21
2022-12-08 07:32:00,,0823.7,5.00,0.00,22.1,20.5,00.0,31.1,23.7,12.0,0000.0,0011.95,0005.11,0004.22
2022-12-08 07:33:00,,0823.7,5.01,0.00,22.0,20.5,00.0,31.1,23.7,12.1,0000.0,0011.91,0005.08,0004.25
2022-12-08 07:34:00,,0823.7,5.00,0.00,22.0,20.5,00.0,31.1,23.7,12.1,0000.0,0012.34,0005.12,0004.30
2022-12-08 07:35:00,,0823.7,4.99,0.00,22.0,20.5,00.0,31.0,23.8,12.1,0000.0,0013.39,0005.15,0004.32
2022-12-08 07:36:00,,0823.7,5.00,0.00,22.0,20.5,00.0,31.0,23.7,12.1,0000.0,0014.25,0005.14,0004.31
2022-12-08 07:37:00,,0823.7,4.99,0.00,22.0,20.4,00.0,31.0,23.6,12.1,0000.0,0014.51,0005.13,0004.31
2022-12-08 07:38:00,,0823.6,5.00,0.00,22.0,20.4,00.0,31.0,23.7,12.1,0000.0,0014.99,0005.14,0004.31
2022-12-08 07:39:00,,0823.7,5.01,0.00,22.0,20.4,00.0,31.0,23.7,12.1,0000.0,0014.97,0005.14,0004.31
2022-12-08 07:40:00,,0823.7,5.01,0.00,21.9,20.4,00.0,31.0,23.7,12.1,0000.0,0015.15,0005.15,0004.30
2022-12-08 07:41:00,,0823.7,5.00,0.00,21.9,20.5,00.0,30.9,23.7,12.1,0000.0,0014.55,0005.12,0004.28
2022-12-08 07:42:00,,0823.6,5.00,0.00,22.0,21.1,00.0,30.9,23.9,12.1,0000.0,0014.86,0005.11,0004.28
2022-12-08 07:43:00,,0823.7,5.01,0.00,22.1,21.9,00.0,30.9,24.1,12.0,0000.0,0015.73,0005.14,0004.29
2022-12-08 07:44:00,,0823.7,4.99,0.00,22.2,21.9,00.0,31.0,24.2,12.0,0000.0,0016.16,0005.16,0004.30
2022-12-08 07:45:00,,0823.7,5.00,0.00,22.2,21.7,00.0,31.0,24.2,11.9,0000.0,0015.66,0005.14,0004.29
2022-12-08 07:46:00,,0823.6,5.01,0.00,22.2,21.5,00.0,31.0,24.1,11.9,0000.0,0014.90,0005.14,0004.30
2022-12-08 07:47:00,,0823.6,4.99,0.00,22.2,21.3,00.0,31.0,24.1,11.9,0000.0,0015.45,0005.17,0004.31
2022-12-08 07:48:00,,0823.6,5.00,0.00,22.2,21.2,00.0,31.1,24.1,11.9,0000.0,0015.27,0005.15,0004.31
2022-12-08 07:49:00,,0823.6,5.00,0.00,22.2,21.1,00.0,31.1,24.1,11.9,0000.0,0015.51,0005.11,0004.31
2022-12-08 07:50:00,,0823.6,5.00,0.00,22.2,21.1,00.0,31.1,24.1,11.9,0000.0,0016.11,0005.09,0004.31
2022-12-08 07:51:00,,0823.6,5.01,0.00,22.2,21.0,00.0,31.1,24.0,11.9,0000.0,0015.97,0005.09,0004.31
2022-12-08 07:52:00,,0823.6,5.00,0.00,22.2,21.0,00.0,31.1,24.0,11.9,0000.0,0016.25,0005.16,0004.32
2022-12-08 07:53:00,,0823.6,5.00,0.00,22.2,20.9,00.0,31.1,23.9,11.9,0000.0,0015.68,0005.16,0004.33
2022-12-08 07:54:00,,0823.6,5.00,0.00,22.2,20.9,00.0,31.1,24.0,12.0,0000.0,0014.53,0005.14,0004.32
2022-12-08 07:55:00,,0823.6,5.00,0.00,22.1,20.9,00.0,31.1,24.0,12.0,0000.0,0013.95,0005.10,0004.30
2022-12-08 07:56:00,,0823.6,5.00,0.00,22.1,20.9,00.0,31.1,24.0,12.0,0000.0,0013.96,0005.07,0004.28
2022-12-08 07:57:00,,0823.6,5.01,0.00,22.1,20.9,00.0,31.1,24.0,12.0,0000.0,0013.26,0005.04,0004.28
2022-12-08 07:58:00,,0823.6,5.01,0.00,22.1,20.8,00.0,31.1,24.0,12.0,0000.0,0012.31,0005.05,0004.27
2022-12-08 07:59:00,,0823.5,5.00,0.00,22.1,20.8,00.0,31.1,23.9,12.0,0000.0,0012.56,0005.10,0004.28
